Weather History for KCCR - November, 2013

Change the Weather History Date:

Sunday, November 24, 2013

  Actual Average Record
Temperature  
Mean Temperature 50 °F 51 °F  
Max Temperature 62 °F 60 °F 69 °F (2014)
Min Temperature 37 °F 42 °F 30 °F (2010)
Degree Days  
Heating Degree Days 15    
Month to date heating degree days 211  
Since 1 July heating degree days 351  
Cooling Degree Days 0    
Month to date cooling degree days 0  
Year to date cooling degree days 826  
Moisture  
Dew Point 38 °F    
Average Humidity 67    
Maximum Humidity 92    
Minimum Humidity 42    
Precipitation  
Precipitation 0.00 in - 0.84 in (2001)
Month to date precipitation 1.35  
Year to date precipitation 4.08  
Since 1 July precipitation 2.02  
Sea Level Pressure  
Sea Level Pressure 30.15 in    
Wind  
Wind Speed 2 mph (East)    
Max Wind Speed 7 mph    
Max Gust Speed 22 mph    
Visibility 8 miles    
Events      
T = Trace of Precipitation, MM = Missing Value Source: NWS Daily Summary

Daily Weather History Graph

Daily Weather History Graph

Search for Another Location

Airport or City:

Trip Planner

Search our weather history database for the weather conditions in past years. The results will help you decide how hot, cold, wet, or windy it might be!

Date:

Astronomy

Nov. 24, 2013 Rise Set
Actual Time 6:58 AM PST 4:51 PM PST
Civil Twilight 6:30 AM PST 5:19 PM PST
Nautical Twilight 5:57 AM PST 5:51 PM PST
Astronomical Twilight 5:26 AM PST 6:23 PM PST
Moon 11:18 PM PST (11/24) 11:52 AM PST (11/24)
Length of Visible Light 10h 49m
Length of Day
9h 52m
Waning Gibbous, 59% of the Moon is Illuminated
Nov 24
Waning Gibbous
Nov 25
Last Quarter
Dec 2
New
Dec 9
First Quarter
Dec 17
Full

Hourly Weather History & Observations

Time (PST) Temp. Windchill Dew Point Humidity Pressure Visibility Wind Dir Wind Speed Gust Speed Precip Events Conditions
12:53 AM 42.1 °F 39.2 °F 37.0 °F 82% 30.07 in 10.0 mi SSE 4.6 mph - N/A   Clear
1:53 AM 42.1 °F 40.2 °F 37.0 °F 82% 30.09 in 10.0 mi SSE 3.5 mph - N/A   Clear
2:53 AM 41.0 °F - 37.0 °F 86% 30.10 in 9.0 mi Calm Calm - N/A   Clear
3:53 AM 39.0 °F - 35.1 °F 86% 30.09 in 8.0 mi Calm Calm - N/A   Clear
4:53 AM 37.9 °F - 35.1 °F 89% 30.10 in 8.0 mi Calm Calm - N/A   Clear
5:53 AM 37.9 °F 35.5 °F 36.0 °F 93% 30.12 in 10.0 mi ESE 3.5 mph - N/A   Clear
6:53 AM 37.9 °F - 35.1 °F 89% 30.14 in 10.0 mi Calm Calm - N/A   Clear
7:53 AM 39.0 °F 36.8 °F 37.0 °F 93% 30.16 in 10.0 mi SSE 3.5 mph - N/A   Clear
8:53 AM 44.1 °F - 39.0 °F 82% 30.17 in 10.0 mi Calm Calm - N/A   Clear
9:53 AM 50.0 °F - 42.1 °F 74% 30.18 in 6.0 mi Calm Calm - N/A   Haze
10:53 AM 55.0 °F - 43.0 °F 64% 30.18 in 4.0 mi North 4.6 mph - N/A   Haze
11:53 AM 57.9 °F - 41.0 °F 53% 30.17 in 5.0 mi North 4.6 mph - N/A   Haze
12:53 PM 59.0 °F - 41.0 °F 51% 30.15 in 6.0 mi Variable 5.8 mph - N/A   Haze
1:53 PM 61.0 °F - 37.9 °F 42% 30.14 in 6.0 mi NNE 4.6 mph - N/A   Haze
2:53 PM 61.0 °F - 37.0 °F 41% 30.14 in 10.0 mi ENE 4.6 mph - N/A   Clear
3:53 PM 60.1 °F - 37.9 °F 44% 30.14 in 8.0 mi North 3.5 mph - 0.00 in   Clear
4:53 PM 57.0 °F - 37.0 °F 47% 30.15 in 10.0 mi Calm Calm - N/A   Clear
5:53 PM 52.0 °F - 39.9 °F 63% 30.17 in 8.0 mi Calm Calm - N/A   Clear
6:53 PM 48.9 °F - 39.9 °F 71% 30.18 in 7.0 mi Calm Calm - N/A   Clear
7:53 PM 48.0 °F - 39.9 °F 74% 30.19 in 7.0 mi Calm Calm - N/A   Clear
8:53 PM 46.0 °F 44.8 °F 39.9 °F 79% 30.20 in 6.0 mi SE 3.5 mph - N/A   Haze
9:53 PM 45.0 °F 42.6 °F 39.0 °F 80% 30.21 in 7.0 mi SE 4.6 mph - N/A   Clear
10:53 PM 43.0 °F - 37.9 °F 82% 30.22 in 7.0 mi Calm Calm - N/A   Clear
11:53 PM 43.0 °F - 37.9 °F 82% 30.22 in 7.0 mi Calm Calm - N/A   Clear